Location: Balmoral
(33.0667°S, 151.5833°E)
Time: 01:05:20
(UTC+00:00)

ATLAS CENTAUR R/B - Pass Details

Date: 18 September 2020
Orbit: 479 x 667 km, 64.7° (Epoch: 12 October)

Event Time Altitude Azimuth Distance (km) Brightness Sun altitude
Exits shadow 18:31:22 26° 315° (NW) 1,186 2.5 -16.7°
Maximum altitude 18:33:43 64° 240° (WSW) 679 1.5 -16.2°
Drops below altitude 10° 18:38:17 10° 158° (SSE) 2,033 4.6 -15.3°
Sets 18:40:41 0° 154° (SSE) 2,974 5.6 -14.8°
